GW3832 Weather Reports


time (UTC)temp
C
wind
direction
speed
KPH
gust
KPH
rain 1hr
cm
rain 24hr
cm
rain mn
cm
humidity
%
barometer
mb
20260507054631 13 96 0.0 1.6 0.00 0.64 0.05 90 1014.5
20260507053053 12 0 0.0 1.6 0.00 0.64 0.05 91 1014.4
20260507051552 11 0 0.0 0.0 0.00 0.64 0.05 91 1014.3
20260507050057 11 0 0.0 0.0 0.00 0.64 0.05 91 1014.2
20260507044554 10 0 0.0 0.0 0.00 0.64 0.05 91 1014.0
20260507043050 10 0 0.0 0.0 0.00 0.64 0.05 90 1013.8
20260507041603 10 0 0.0 0.0 0.00 0.64 0.05 90 1013.7
20260507040058 10 0 0.0 0.0 0.00 0.64 0.05 90 1013.7
20260507034600 10 0 0.0 1.6 0.00 0.64 0.05 90 1013.7
20260507033101 10 0 0.0 0.0 0.00 0.64 0.05 89 1013.6
20260507031605 11 0 0.0 0.0 0.00 0.64 0.05 89 1013.6
20260507030055 11 25 0.0 3.2 0.00 0.64 0.05 89 1013.6
20260507024553 11 13 0.0 1.6 0.00 0.94 0.05 89 1013.7
20260507023102 11 0 0.0 1.6 0.00 0.94 0.05 89 1013.7
20260507021551 11 0 0.0 1.6 0.00 0.94 0.05 88 1013.8
20260507020056 11 0 0.0 3.2 0.00 0.94 0.05 87 1013.6
20260507014600 11 37 1.6 4.8 0.00 0.94 0.05 87 1013.5
20260507013053 12 53 0.0 1.6 0.00 0.94 0.05 88 1013.6
20260507011552 12 0 0.0 1.6 0.00 0.94 0.05 87 1013.6
20260507010054 12 53 0.0 1.6 0.00 0.94 0.05 86 1013.8
20260507004552 12 0 0.0 3.2 0.00 0.94 0.05 86 1013.7
20260507003055 12 0 0.0 6.4 0.00 0.94 0.05 87 1013.7
20260507001551 12 112 0.0 1.6 0.00 0.94 0.05 87 1013.9
20260507000051 12 0 0.0 6.4 0.00 0.94 0.05 87 1013.8
20260506234550 12 139 1.6 4.8 0.00 0.94 0.05 87 1014.0
20260506233108 12 155 1.6 4.8 0.00 0.94 0.05 87 1013.9
20260506231553 12 70 1.6 6.4 0.00 0.94 0.05 88 1013.8
20260506230053 12 56 3.2 8.0 0.05 0.94 0.05 88 1014.0
20260506224553 12 134 4.8 9.7 0.05 1.02 0.05 88 1014.2
20260506223053 12 152 4.8 11.3 0.05 1.02 0.05 88 1014.0
20260506221553 12 137 3.2 9.7 0.03 1.02 0.03 88 1013.8
20260506220056 13 124 3.2 8.0 0.00 0.97 0.00 88 1013.9
20260506214552 13 136 1.6 8.0 0.00 0.97 0.97 88 1013.9
20260506213113 13 136 1.6 6.4 0.00 0.97 0.97 88 1013.8
20260506211551 13 0 0.0 3.2 0.00 0.97 0.97 88 1013.6
20260506210054 13 140 0.0 4.8 0.00 0.97 0.97 88 1013.6
20260506204554 13 127 1.6 4.8 0.00 0.97 0.97 88 1013.5
20260506203053 13 98 1.6 3.2 0.00 0.97 0.97 88 1013.4
20260506201550 14 128 3.2 8.0 0.00 0.97 0.97 88 1013.3
20260506200053 14 120 3.2 6.4 0.00 0.97 0.97 88 1013.2
20260506194616 15 122 1.6 6.4 0.00 0.97 0.97 88 1012.7
20260506193102 15 122 1.6 6.4 0.00 0.97 0.97 89 1012.8
20260506191551 15 135 0.0 8.0 0.00 0.97 0.97 89 1012.4
20260506190057 15 110 1.6 12.9 0.00 0.97 0.97 89 1012.1
20260506184638 15 134 3.2 6.4 0.00 0.97 0.97 88 1012.0
20260506183057 16 0 0.0 1.6 0.00 0.97 0.97 88 1011.7
20260506181556 16 0 0.0 0.0 0.00 0.97 0.97 88 1011.7
20260506180106 16 0 0.0 0.0 0.00 0.97 0.97 89 1011.6
20260506174556 16 260 0.0 3.2 0.00 0.97 0.97 89 1011.4
20260506173058 16 0 0.0 1.6 0.00 0.97 0.97 89 1011.3
20260506171603 16 160 0.0 4.8 0.00 0.97 0.97 89 1011.4
20260506170105 16 0 0.0 3.2 0.03 0.97 0.97 89 1011.4
20260506164557 16 0 0.0 3.2 0.03 0.97 0.97 88 1011.2
20260506163112 16 71 1.6 3.2 0.23 0.97 0.97 88 1011.0
20260506161551 16 288 0.0 3.2 0.36 0.97 0.97 88 1011.1
20260506160056 16 360 0.0 6.4 0.33 0.94 0.94 87 1011.2
20260506154615 16 288 3.2 12.9 0.51 0.94 0.94 86 1010.9
20260506153107 16 64 1.6 6.4 0.33 0.74 0.74 85 1010.8
20260506151558 16 26 1.6 6.4 0.23 0.64 0.61 85 1010.4
20260506150051 16 61 1.6 8.0 0.20 0.61 0.58 84 1010.6
20260506144551 17 53 1.6 11.3 0.03 0.48 0.41 81 1010.8
20260506143104 16 37 4.8 9.7 0.00 0.46 0.38 80 1010.8
20260506141556 17 7 3.2 11.3 0.00 0.46 0.36 77 1011.0
20260506140057 17 304 3.2 12.9 0.00 0.46 0.36 74 1011.1
20260506134553 18 246 6.4 19.3 0.00 0.46 0.36 71 1011.2
20260506133053 20 188 6.4 20.9 0.00 0.46 0.36 66 1010.9
20260506131550 21 200 4.8 22.5 0.00 0.46 0.36 66 1010.5
20260506130052 21 198 8.0 25.7 0.00 0.46 0.36 67 1010.5
20260506124552 21 150 8.0 20.9 0.00 0.64 0.36 69 1010.7
20260506123054 22 207 6.4 17.7 0.00 0.64 0.36 63 1010.8
20260506121550 22 128 8.0 27.4 0.00 0.64 0.36 63 1010.7
20260506120059 21 250 6.4 24.1 0.00 0.64 0.36 67 1010.6
20260506114559 21 222 4.8 14.5 0.00 1.91 0.36 67 1011.0
20260506113054 22 235 4.8 19.3 0.00 1.91 0.36 67 1011.0
20260506111557 21 169 3.2 17.7 0.00 1.91 0.36 72 1011.1
20260506104553 20 233 9.7 27.4 0.00 1.93 0.36 71 1011.4
20260506103053 20 182 8.0 19.3 0.00 1.93 0.36 72 1011.4
20260506101602 20 186 12.9 32.2 0.00 1.93 0.36 71 1011.4
20260506100053 20 150 9.7 19.3 0.00 1.93 0.36 71 1011.5
20260506094621 21 182 8.0 19.3 0.00 1.93 0.36 70 1011.4
20260506093056 19 221 6.4 22.5 0.00 1.93 0.36 72 1011.4
20260506091550 18 200 11.3 19.3 0.00 1.93 0.36 72 1011.5
20260506090052 18 148 6.4 22.5 0.00 1.93 0.36 74 1011.4
20260506084552 17 186 6.4 16.1 0.00 1.93 0.36 80 1011.4
20260506083052 17 204 6.4 17.7 0.00 1.93 0.36 83 1011.5
20260506081550 17 160 4.8 9.7 0.00 1.93 0.36 83 1011.3
20260506073053 15 148 3.2 8.0 0.00 1.93 0.36 87 1011.2
20260506071550 15 113 3.2 9.7 0.00 1.93 0.36 87 1011.2
20260506061553 15 118 4.8 14.5 0.00 1.93 0.36 86 1010.9